Location: Montr�al
(45.5000°N, 73.5830°W)
Time: 23:00:30
(UTC-04:00)

ISS - All Passes

Search period start: 20 October 2017 00:00
Search period end: 30 October 2017 00:00
Orbit: 401 x 408 km, 51.6° (Epoch: 21 October)

Date Brightness Start Highest point End Pass type
(mag) Time Alt. Az. Time Alt. Az. Time Alt. Az.
20 Oct - 11:00:05 10° SW 11:03:18 64° SSE 11:06:33 10° ENE daylight
20 Oct - 12:36:57 10° W 12:39:57 33° NNW 12:42:58 10° NE daylight
20 Oct - 14:14:07 10° NW 14:17:00 28° N 14:19:53 10° ENE daylight
20 Oct - 15:50:36 10° WNW 15:53:52 68° NNE 15:57:08 10° ESE daylight
20 Oct - 17:27:36 10° W 17:30:04 20° SW 17:32:32 10° S daylight
21 Oct - 10:08:03 10° SSW 10:11:04 36° SE 10:14:05 10° ENE daylight
21 Oct - 11:44:22 10° W 11:47:30 44° NNW 11:50:40 10° NE daylight
21 Oct - 13:21:39 10° WNW 13:24:29 26° N 13:27:19 10° ENE daylight
21 Oct - 14:58:18 10° NW 15:01:29 45° NNE 15:04:39 10° E daylight
21 Oct - 16:34:53 10° WNW 16:37:54 34° SW 16:40:54 10° SSE daylight
22 Oct - 09:16:23 10° S 09:18:53 21° SE 09:21:24 10° E daylight
22 Oct - 10:51:52 10° WSW 10:55:05 65° NNW 10:58:21 10° ENE daylight
22 Oct - 12:29:06 10° WNW 12:31:58 27° N 12:34:50 10° NE daylight
22 Oct - 14:05:59 10° NW 14:09:01 34° NNE 14:12:04 10° E daylight
22 Oct - 15:42:25 10° WNW 15:45:39 61° SSW 15:48:52 10° SE daylight
23 Oct - 08:25:30 10° SSE 08:26:46 12° SE 08:28:01 10° ESE daylight
23 Oct - 09:59:29 10° SW 10:02:44 78° SSE 10:06:00 10° ENE daylight
23 Oct - 11:36:29 10° WNW 11:39:27 31° NNW 11:42:25 10° NE daylight
23 Oct - 13:13:36 10° NW 13:16:31 29° N 13:19:25 10° ENE daylight
23 Oct - 14:50:02 10° WNW 14:53:19 80° NNE 14:56:35 10° ESE daylight
23 Oct - 16:27:17 10° W 16:29:26 16° SW 16:31:34 10° S daylight
24 Oct - 09:07:20 10° SW 09:10:26 44° SE 09:13:33 10° ENE daylight
24 Oct - 10:43:51 10° W 10:46:57 39° NNW 10:50:03 10° NE daylight
24 Oct - 12:21:07 10° WNW 12:23:58 26° N 12:26:48 10° ENE daylight
24 Oct - 13:57:42 10° NW 14:00:55 51° NNE 14:04:06 10° E daylight
24 Oct - 15:34:23 10° WNW 15:37:15 28° SW 15:40:06 10° SSE daylight
25 Oct - 08:15:28 10° SSW 08:18:12 25° SE 08:20:56 10° E daylight
25 Oct - 09:51:17 10° WSW 09:54:29 56° NNW 09:57:42 10° ENE daylight
25 Oct - 11:28:33 10° WNW 11:31:24 27° N 11:34:15 10° ENE daylight
25 Oct - 13:05:21 10° NW 13:08:26 37° NNE 13:11:30 10° E daylight
25 Oct - 14:41:48 10° WNW 14:44:59 50° SW 14:48:10 10° SE daylight
26 Oct - 07:24:09 10° S 07:26:01 14° SE 07:27:52 10° E daylight
26 Oct - 08:58:49 10° WSW 09:02:04 88° NNW 09:05:20 10° ENE daylight
26 Oct - 10:35:54 10° WNW 10:38:50 29° N 10:41:46 10° NE daylight
26 Oct - 12:12:57 10° NW 12:15:54 30° N 12:18:50 10° ENE daylight
26 Oct - 13:49:22 10° WNW 13:52:39 87° SSW 13:55:55 10° ESE daylight
26 Oct - 15:26:58 10° WSW 15:28:40 13° SW 15:30:22 10° SSW daylight
27 Oct - 08:06:32 10° SW 08:09:42 53° SE 08:12:54 10° ENE daylight
27 Oct - 09:43:14 10° W 09:46:17 36° NNW 09:49:21 10° NE daylight
27 Oct - 11:20:28 10° WNW 11:23:19 27° N 11:26:11 10° ENE daylight
27 Oct - 12:56:58 10° WNW 13:00:13 59° NNE 13:03:27 10° ESE daylight
27 Oct - 14:33:48 10° W 14:36:28 23° SW 14:39:09 10° SSE daylight
28 Oct - 07:14:31 10° SSW 07:17:24 30° SE 07:20:18 10° ENE daylight
28 Oct - 08:50:35 10° W 08:53:46 49° NNW 08:56:57 10° NE daylight
28 Oct - 10:27:53 10° WNW 10:30:43 26° N 10:33:33 10° ENE daylight
28 Oct - 12:04:36 10° NW 12:07:43 41° NNE 12:10:50 10° E daylight
28 Oct - 13:41:06 10° WNW 13:44:12 41° SW 13:47:18 10° SE daylight
29 Oct - 06:22:55 10° S 06:25:09 17° SE 06:27:24 10° E visible
29 Oct - 07:58:03 10° WSW 08:01:17 75° NNW 08:04:33 10° ENE daylight
29 Oct - 09:35:13 10° WNW 09:38:06 28° N 09:41:00 10° NE daylight
29 Oct - 11:12:11 10° NW 11:15:10 32° NNE 11:18:09 10° ENE daylight
29 Oct - 12:48:35 10° WNW 12:51:50 73° SSW 12:55:05 10° SE daylight
29 Oct - 14:26:49 10° WSW 14:27:47 11° SW 14:28:45 10° SSW daylight
